Regional Weather Roundup
Issued by NWS Goodland, KS

Home | Current Version | Previous Version | Text Only | Print | Product List | Glossary Off
Versions: 1 2 3 4 5 6 7 8 9 10 11 12 13 14 15 16 17 18 19 20 21 22 23 24 25 26 27 28 29 30 31 32 33 34 35 36 37 38 39 40 41 42 43 44 45 46 47 48 49 50

000
ASUS43 KGLD 112208
RWRGLD

GOODLAND FORECAST AREA HOURLY WEATHER ROUNDUP
NATIONAL WEATHER SERVICE GOODLAND KS
400 PM MDT FRI JUL 11 2014

...OFFICIAL OBSERVATIONS...

CITY           SKY/WX    TMP DP  RH WIND       PRES   REMARKS
GOODLAND KS    SUNNY     96  52  22 S17G31    29.95F
HILL CITY KS   SUNNY     99  53  21 S21G30    29.94S
IMPERIAL NEB   SUNNY     90  69  50 NE20      29.96F
MCCOOK NEB     SUNNY     97  63  32 S13       29.91F
AKRON CO       SUNNY     89  61  38 E12G22    30.05F
BURLINGTON CO  SUNNY     97  52  21 S7        29.98F
LIMON CO       SUNNY     90  57  32 E7        30.08F
$$

...UNOFFICIAL OBSERVATIONS...

CITY           SKY/WX    TMP DP  RH WIND       PRES   REMARKS
COLBY KS       SUNNY     99  59  26 SE24G36   29.96F
GOVE KS          N/A     96  32  10 CALM        N/A
LENORA KS        N/A     98  32  10 MISG        N/A
NORTON KS      SUNNY    100  39  12 S18G24    29.91F
OBERLIN KS     FAIR     100  48  17 S21G31    29.92F
SHARON SPRINGS   N/A     99  52  20 S20G33      N/A
ST FRANCIS KS  SUNNY    100  36  10 SW12G21   29.92F
TRIBUNE KS     SUNNY     99 N/A N/A S24G36    29.99
WAKEENEY KS      N/A     99  48  17 MISG        N/A
WRAY CO          N/A     99  61  28 NE17G26   29.96F
YUMA CO          N/A     91  62  37 NE10        N/A
$$



USA.gov is the U.S. government's official web portal to all federal, state and local government web resources and services.